User: anonymous   Login
Location: Unspecified
(0.0000°N, 0.0000°E)
Time: 00:38:43
(UTC+01:00)
Language:

ARIANE 5 R/B - Orbit

View from above orbital plane
View from above orbital plane
View from above satellite
View from above satellite

Ground track
Ground track

The orbit data is extracted from the following two-line orbital elements,

1 28886U 05041C   14303.54487251  .00000086  00000-0  10093-2 0  6333
2 28886 008.3247 006.2536 7182383 105.0146 005.5704 02.24312706 74165
Epoch (UTC): 30 October 2014 13:04:36
Eccentricity: 0.7182383
inclination: 8.3247°
perigee height: 567 km
apogee height: 35977 km
right ascension of ascending node: 6.2536°
argument of perigee: 105.0146°
revolutions per day: 2.24312706
mean anomaly at epoch: 5.5704°
orbit number at epoch: 7416

The dashed part of the orbit path shows where the satellite is in the earth's shadow,  

DLR